Hourly Data Report for October 05, 2014

All times are specified in Local Standard Time (LST). Add 1 hour to adjust for Daylight Saving Time where and when it is observed.

QIKIQTARJUAQ A
NUNAVUT

67°32'48.000" N
64°01'54.000" W
5.50 m
2400577
YVM

Download Data

Hourly Data (October 2014)
Hourly Data Report for October 5, 2014
Temp Definition
°C
Dew Point Temp Definition
°C
Rel Hum Definition
%
Wind Dir Definition
10's deg

Wind Spd Definition
km/h
Visibility Definition
km
Stn Press Definition
kPa
Hmdx Definition


Wind Chill Definition


Weather Definition


TIME
00:00 Legend Double Dagger -2.5 -6.4 75 20 13 16.1 102.27   -7 LegendNANA
01:00 Legend Double Dagger -2.3 -6.5 73 19 15 16.1 102.31   -7 LegendNANA
02:00 Legend Double Dagger -3.9 -7.7 75 18 11 16.1 102.35   -8 LegendNANA
03:00 Legend Double Dagger -3.8 -7.8 74 14 13 16.1 102.39   -9 LegendNANA
04:00 Legend Double Dagger -3.6 -7.8 73 18 22 16.1 102.41   -10 LegendNANA
05:00 Legend Double Dagger -3.6 -7.8 73 18 18 16.1 102.48   -9 LegendNANA
06:00 Legend Double Dagger -5.3 -8.7 77 16 11 16.1 102.53   -10 LegendNANA
07:00 Legend Double Dagger -6.2 -9.3 79 14 8 16.1 102.54   -10 LegendNANA
08:00 Legend Double Dagger -3.7 -8.8 68 18 17 16.1 102.56   -9 LegendNANA
09:00 Legend Double Dagger -4.0 -8.6 71 17 8 16.1 102.56   -7 LegendNANA
10:00 Legend Double Dagger -3.3 -7.8 71 19 15 16.1 102.57   -8 LegendNANA
11:00 Legend Double Dagger -2.8 -7.2 72 20 15 16.1 102.59   -8 LegendNANA
12:00 Legend Double Dagger -2.0 -6.4 72 19 8 16.1 102.58   -5 LegendNANA
13:00 Legend Double Dagger -1.2 -6.6 67 20 5 16.1 102.63   -3 LegendNANA
14:00 Legend Double Dagger -1.6 -5.7 74 20 4 16.1 102.65   -3 LegendNANA
15:00 Legend Double Dagger -1.9 -5.7 76 18 5 16.1 102.67   -4 LegendNANA
16:00 Legend Double Dagger -2.4 -5.3 80 20 5 16.1 102.69   -4 LegendNANA
17:00 Legend Double Dagger -2.6 -5.6 80 12 4 16.1 102.69   -4 LegendNANA
18:00 Legend Double Dagger -2.5 -5.6 79 13 5 16.1 102.70   -4 LegendNANA
19:00 Legend Double Dagger -2.8 -5.6 81 13 4 16.1 102.71   -4 LegendNANA
20:00 Legend Double Dagger -1.8 -5.8 75 16 5 16.1 102.67   -4 LegendNANA
21:00 Legend Double Dagger -1.8 -5.3 77 LegendMM 4 16.1 102.64   -3 LegendNANA
22:00 Legend Double Dagger -2.6 -5.1 83 16 4 16.1 102.64   -4 LegendNANA
23:00 Legend Double Dagger -2.5 -5.0 83 14 5 16.1 102.60   -4 LegendNANA

Notes on Data Quality.

Legend

  • E = Estimated
  • M = Missing
  • NA = Not Available
  • ‡ = Partner data that is not subject to review by the National Climate Archives
Date modified: